Regional Weather Roundup
Issued by NWS

Home | Current Version | Previous Version | Graphics & Text | Print | Product List | Glossary On
Versions: 1 2 3 4 5 6 7 8 9 10 11 12 13 14 15 16 17 18 19 20 21 22 23 24 25 26 27 28 29 30 31 32 33 34 35 36 37 38 39 40 41 42 43 44 45 46 47 48 49 50
000
ASUS45 KCYS 291310
RWRWY

WYOMING REGIONAL WEATHER ROUNDUP
NATIONAL WEATHER SERVICE CHEYENNE WY
700 AM MDT FRI MAY 29 2015

NOTE:  "FAIR" INDICATES FEW OR NO CLOUDS BELOW 12,000 FEET
WITH NO SIGNIFICANT WEATHER AND/OR OBSTRUCTIONS TO VISIBILITY.

WYZ001-291400-
YELLOWSTONE NATIONAL PARK

CITY           SKY/WX    TMP DP  RH WIND       PRES   REMARKS
LK YELLOWSTONE   N/A     33  31  92 CALM      30.35R
W YELLOWSTONE  NOT AVBL

$$
WYZ002>013-054>058-071-098>099-291400-
NORTHERN WYOMING

CITY           SKY/WX    TMP DP  RH WIND       PRES   REMARKS
JACKSON        CLOUDY    39  39 100 CALM      30.30R
CODY           PTSUNNY   46  46 100 N6        30.29R
GREYBULL       CLOUDY    50  47  89 NW13      30.23R
WORLAND        LGT RAIN  51  48  89 N10       30.23R
SHERIDAN       CLOUDY    46  45  96 N10       30.28R FOG
BUFFALO        LGT RAIN  46  45  96 N15G28    30.27R FOG
GILLETTE       LGT RAIN  45  44  97 N12       30.23R FOG
HULETT         LGT RAIN  45  43  93 N10       30.24R
NEWCASTLE      LGT RAIN  50  46  87 N14G21    30.15R

$$
WYZ014>020-022>026-101>103-291400-
CENTRAL WYOMING

CITY           SKY/WX    TMP DP  RH WIND       PRES   REMARKS
BIG PINEY      FAIR      37  35  92 CALM      30.31R
PINEDALE       FAIR      36  36 100 CALM      30.32R
DUBOIS         PTSUNNY   36  32  87 NW8       30.30R WCI  29
LANDER         CLOUDY    48  44  86 W3        30.26R
RIVERTON       CLOUDY    49  44  83 N5        30.27R
CASPER         CLOUDY    46  44  93 NW10      30.24R
DOUGLAS        HVY RAIN  50  48  93 NW14      30.20R FOG

$$
WYZ021-027>030-104>119-291400-
SOUTHERN WYOMING

CITY           SKY/WX    TMP DP  RH WIND       PRES   REMARKS
EVANSTON       FAIR      40  35  83 CALM      30.29R
KEMMERER       FAIR      37  36  93 N6        30.30S WCI  33
FORT BRIDGER   SUNNY     43  41  93 CALM      30.32R
ROCK SPRINGS   CLOUDY    43  39  86 CALM      30.30R
DIXON          CLOUDY    45  42  90 CALM      30.30R
RAWLINS        CLOUDY    43  39  86 CALM      30.27R
SARATOGA       CLOUDY    41  37  87 CALM      30.29R
LARAMIE        CLOUDY    44  39  82 N3        30.24R
CHEYENNE       CLOUDY    48  41  76 N12       30.20R
TORRINGTON     LGT RAIN  53  50  89 NW8       30.13R
PINE BLUFFS    PTSUNNY   50  46  87 NW8       30.18R

$$



USA.gov is the U.S. government's official web portal to all federal, state and local government web resources and services.